User: anonymous   Login
Location: Beccas
(43.4309°N, 0.1528°E)
Time: 23:54:54
(UTC+00:00)
Language:

deb Kosmos-2227 - Orbit

View from above orbital plane
View from above orbital plane
View from above satellite
View from above satellite

Ground track
Ground track

The orbit data is extracted from the following two-line orbital elements,

1 22347U 92093AL  22221.16652587  .00000970  00000-0  66246-3 0  9993
2 22347  70.8394 116.1183 0175136 277.9425 236.6039 13.95219377493092
Epoch (UTC): 09 August 2022 03:59:47
Eccentricity: 0.0175136
inclination: 70.8394°
perigee height: 783 km
apogee height: 1038 km
right ascension of ascending node: 116.1183°
argument of perigee: 277.9425°
revolutions per day: 13.95219377
mean anomaly at epoch: 236.6039°
orbit number at epoch: 49309

The dashed part of the orbit path shows where the satellite is in the earth's shadow,  

DLR